Estación de San Ignacio
Ultimos registro cada 15 minutos 58
| N° | Estación | Fecha / Hora | Temperatura | Humedad | Lluvia | Velocidad | Dirección | Radiación | Presion |
| 58 | San Ignacio | 03-05-2026 14:45 | 13,7 | 77 | 0 | 0 | 113 | 46 | 1033,5 |
| 57 | San Ignacio | 03-05-2026 14:30 | 13,7 | 77 | 0 | 0 | 113 | 46 | 1033,5 |
| 56 | San Ignacio | 03-05-2026 14:15 | 14 | 75 | 0 | 0,4 | 113 | 56 | 1033,1 |
| 55 | San Ignacio | 03-05-2026 14:00 | 14,2 | 73 | 0 | 0,4 | 113 | 49 | 1033,1 |
| 54 | San Ignacio | 03-05-2026 13:45 | 14,1 | 73 | 0 | 0,9 | 113 | 223 | 1033,1 |
| 53 | San Ignacio | 03-05-2026 13:30 | 14,1 | 73 | 0 | 0,9 | 113 | 223 | 1033,1 |
| 52 | San Ignacio | 03-05-2026 13:15 | 13,7 | 75 | 0 | 0,9 | 109 | 176 | 1033,4 |
| 51 | San Ignacio | 03-05-2026 13:00 | 13,3 | 76 | 0 | 0 | 109 | 116 | 1033,6 |
| 50 | San Ignacio | 03-05-2026 12:45 | 12,9 | 76 | 0 | 0 | 109 | 123 | 1034,2 |
| 49 | San Ignacio | 03-05-2026 12:30 | 12,9 | 76 | 0 | 0 | 109 | 123 | 1034,2 |
| 48 | San Ignacio | 03-05-2026 12:15 | 12,9 | 76 | 0 | 0,4 | 109 | 120 | 1034,3 |
| 47 | San Ignacio | 03-05-2026 12:00 | 12,9 | 76 | 0 | 0 | 109 | 107 | 1034,3 |
| 46 | San Ignacio | 03-05-2026 11:45 | 11,9 | 79 | 0 | 0 | 108 | 127 | 1033,7 |
| 45 | San Ignacio | 03-05-2026 11:30 | 11,9 | 79 | 0 | 0 | 108 | 127 | 1033,7 |
| 44 | San Ignacio | 03-05-2026 11:15 | 11,7 | 79 | 0 | 0 | 108 | 156 | 1033,7 |
| 43 | San Ignacio | 03-05-2026 11:00 | 11,4 | 80 | 0 | 0,9 | 66 | 211 | 1033,9 |
| 42 | San Ignacio | 03-05-2026 10:45 | 10,9 | 79 | 0 | 0,4 | 62 | 202 | 1033,8 |
| 41 | San Ignacio | 03-05-2026 10:30 | 10,9 | 79 | 0 | 0,4 | 62 | 202 | 1033,8 |
| 40 | San Ignacio | 03-05-2026 10:15 | 10,7 | 79 | 0 | 0,4 | 62 | 155 | 1034,1 |
| 39 | San Ignacio | 03-05-2026 10:00 | 10,3 | 81 | 0 | 0 | 62 | 149 | 1034,2 |
| 38 | San Ignacio | 03-05-2026 09:45 | 8,9 | 85 | 0 | 0 | 62 | 88 | 1033,8 |
| 37 | San Ignacio | 03-05-2026 09:30 | 8,9 | 85 | 0 | 0 | 62 | 88 | 1033,8 |
| 36 | San Ignacio | 03-05-2026 09:15 | 7,9 | 89 | 0 | 0 | 62 | 104 | 1033,6 |
| 35 | San Ignacio | 03-05-2026 09:00 | 6,9 | 92 | 0 | 0 | 62 | 97 | 1033,6 |
| 34 | San Ignacio | 03-05-2026 08:45 | 5,3 | 91 | 0 | 0 | 62 | 54 | 1033,8 |
| 33 | San Ignacio | 03-05-2026 08:30 | 5,3 | 91 | 0 | 0 | 62 | 54 | 1033,8 |
| 32 | San Ignacio | 03-05-2026 08:15 | 4,3 | 91 | 0 | 0 | 62 | 42 | 1034 |
| 31 | San Ignacio | 03-05-2026 08:00 | 3,7 | 91 | 0 | 0 | 62 | 30 | 1033,5 |
| 30 | San Ignacio | 03-05-2026 07:45 | 3,1 | 90 | 0 | 0 | 62 | 0 | 1033,6 |
| 29 | San Ignacio | 03-05-2026 07:30 | 3,1 | 90 | 0 | 0 | 62 | 0 | 1033,6 |
| 28 | San Ignacio | 03-05-2026 07:15 | 3,3 | 90 | 0 | 0 | 62 | 0 | 1033,6 |
| 27 | San Ignacio | 03-05-2026 07:00 | 3,4 | 91 | 0 | 0 | 62 | 0 | 1033,5 |
| 26 | San Ignacio | 03-05-2026 06:45 | 2,8 | 91 | 0 | 0 | 62 | 0 | 1033,4 |
| 25 | San Ignacio | 03-05-2026 06:30 | 2,8 | 91 | 0 | 0 | 62 | 0 | 1033,4 |
| 24 | San Ignacio | 03-05-2026 06:15 | 2,4 | 91 | 0 | 0 | 62 | 0 | 1033,2 |
| 23 | San Ignacio | 03-05-2026 06:00 | 2,4 | 90 | 0 | 0 | 62 | 0 | 1033,3 |
| 22 | San Ignacio | 03-05-2026 05:45 | 2,4 | 90 | 0 | 0 | 62 | 0 | 1033,4 |
| 21 | San Ignacio | 03-05-2026 05:30 | 2,4 | 90 | 0 | 0 | 62 | 0 | 1033,4 |
| 20 | San Ignacio | 03-05-2026 05:15 | 2,3 | 90 | 0 | 0 | 62 | 0 | 1033,1 |
| 19 | San Ignacio | 03-05-2026 05:00 | 2,1 | 90 | 0 | 0 | 62 | 0 | 1033,3 |
| 18 | San Ignacio | 03-05-2026 04:45 | 2,4 | 90 | 0 | 0 | 62 | 0 | 1033,3 |
| 17 | San Ignacio | 03-05-2026 04:30 | 2,4 | 90 | 0 | 0 | 62 | 0 | 1033,3 |
| 16 | San Ignacio | 03-05-2026 04:15 | 2,7 | 90 | 0 | 0 | 62 | 0 | 1033,2 |
| 15 | San Ignacio | 03-05-2026 04:00 | 2,4 | 89 | 0 | 0 | 62 | 0 | 1033,1 |
| 14 | San Ignacio | 03-05-2026 03:45 | 3,1 | 89 | 0 | 0 | 62 | 0 | 1033,4 |
| 13 | San Ignacio | 03-05-2026 03:30 | 3,1 | 89 | 0 | 0 | 62 | 0 | 1033,4 |
| 12 | San Ignacio | 03-05-2026 03:15 | 3,4 | 89 | 0 | 0 | 62 | 0 | 1033,5 |
| 11 | San Ignacio | 03-05-2026 03:00 | 3,2 | 89 | 0 | 0 | 62 | 0 | 1033,5 |
| 10 | San Ignacio | 03-05-2026 02:45 | 3,5 | 87 | 0 | 0 | 62 | 0 | 1033,8 |
| 9 | San Ignacio | 03-05-2026 02:30 | 3,5 | 87 | 0 | 0 | 62 | 0 | 1033,8 |
| 8 | San Ignacio | 03-05-2026 02:15 | 4,5 | 88 | 0 | 0 | 62 | 0 | 1033,4 |
| 7 | San Ignacio | 03-05-2026 02:00 | 4,7 | 89 | 0 | 0 | 62 | 0 | 1033,5 |
| 6 | San Ignacio | 03-05-2026 01:45 | 4,7 | 87 | 0 | 0 | 62 | 0 | 1033,8 |
| 5 | San Ignacio | 03-05-2026 01:30 | 4,7 | 87 | 0 | 0 | 62 | 0 | 1033,8 |
| 4 | San Ignacio | 03-05-2026 01:15 | 5,2 | 88 | 0 | 0 | 62 | 0 | 1033,9 |
| 3 | San Ignacio | 03-05-2026 01:00 | 5,6 | 88 | 0 | 0 | 62 | 0 | 1033,7 |
| 2 | San Ignacio | 03-05-2026 00:15 | 5,8 | 88 | 0 | 0 | 62 | 0 | 1033,6 |
| 1 | San Ignacio | 03-05-2026 00:00 | 5,7 | 88 | 0 | 0 | 62 | 0 | 1033,8 |